Date,TemperatureHighF,TemperatureAvgF,TemperatureLowF,DewpointHighF,DewpointAvgF,DewpointLowF,HumidityHigh,HumidityAvg,HumidityLow,PressureMaxIn,PressureMinIn,WindSpeedMaxMPH,WindSpeedAvgMPH,GustSpeedMaxMPH,PrecipitationSumIn
2013-1-1,47.4,43.9,39.9,45.8,35.8,19.4,97,76,39,30.23,30.06,4,0,5,0.24
2013-1-2,43.7,37.7,34.7,43.2,36.4,33.3,98,95,90,30.26,30.02,3,1,6,0.03
2013-1-3,37.9,34.1,28.0,37.0,32.1,24.4,100,92,79,30.42,30.22,4,1,6,0.01
2013-1-4,40.6,30.4,25.0,26.2,22.9,21.4,90,75,47,30.53,30.41,4,2,10,0.00
2013-1-5,46.8,35.2,26.9,30.1,22.6,18.4,78,61,39,30.55,30.36,5,2,8,0.00
2013-1-6,46.6,38.2,33.2,38.0,32.8,28.0,94,81,69,30.35,30.18,4,2,6,0.00
2013-1-7,51.0,37.7,29.6,30.4,27.1,24.9,89,68,37,30.53,30.34,7,2,8,0.00
2013-1-8,53.0,40.8,32.0,44.2,34.3,27.2,94,78,65,30.56,30.45,4,2,8,0.00
2013-1-9,55.0,50.2,43.8,51.8,48.7,41.9,99,94,86,30.57,30.49,3,0,5,0.00
2013-1-10,62.0,54.8,51.6,53.1,51.0,48.6,95,87,71,30.58,30.44,2,1,5,0.00
2013-1-11,57.0,55.0,51.3,56.7,54.7,51.0,99,99,99,30.28,30.22,5,3,10,0.56
2013-1-12,67.8,60.6,57.0,61.4,58.1,56.0,99,92,77,30.25,30.14,7,2,16,0.01
2013-1-13,65.1,60.1,57.7,57.9,55.9,53.5,97,86,74,30.17,30.08,9,4,16,0.08
2013-1-14,58.7,54.6,43.7,57.9,54.1,43.2,99,98,92,30.23,30.08,6,3,8,1.01
2013-1-15,51.1,47.7,43.3,50.8,47.4,43.0,99,99,98,30.21,30.12,5,1,8,1.35
2013-1-16,54.4,50.2,44.5,54.4,50.1,44.2,100,100,98,30.13,30.04,5,1,8,0.37
2013-1-17,51.0,41.6,31.2,50.7,41.1,28.6,99,98,90,30.32,29.87,6,2,9,1.97
2013-1-18,46.6,35.7,27.2,28.5,23.5,17.3,90,64,34,30.64,30.32,4,1,7,0.00
2013-1-19,53.2,39.4,29.7,32.3,26.9,21.4,83,62,30,30.60,30.29,5,2,7,0.00
2013-1-20,55.3,43.3,35.7,34.7,28.8,20.9,73,57,41,30.29,30.17,5,2,7,0.00
2013-1-21,50.5,40.0,30.2,29.6,24.0,12.9,73,54,34,30.20,30.07,4,2,9,0.00
2013-1-22,31.8,24.4,18.7,14.7,5.4,-1.8,64,45,26,30.41,30.12,4,2,10,0.00
2013-1-23,42.5,29.8,19.4,23.9,14.1,2.7,66,52,41,30.50,30.23,3,1,5,0.00
2013-1-24,40.5,32.9,21.1,29.2,16.3,3.5,70,51,32,30.54,30.14,5,2,11,0.00
2013-1-25,34.7,25.3,19.6,34.2,18.6,4.8,98,77,51,30.57,30.24,9,3,15,0.01
2013-1-26,46.1,37.2,29.7,34.1,28.7,26.3,98,73,47,30.47,30.30,3,1,5,0.01
2013-1-27,41.7,33.4,27.5,31.3,28.2,25.7,95,81,63,30.63,30.47,6,1,9,0.01
2013-1-28,62.5,48.0,35.2,49.3,40.8,30.1,88,77,58,30.57,30.33,5,2,8,0.00
2013-1-29,68.4,56.4,47.9,56.7,50.0,43.0,97,80,53,30.34,30.06,7,2,14,0.17
2013-1-30,60.4,56.1,42.8,58.8,54.8,40.6,98,95,90,30.06,29.52,11,6,21,2.27
2013-1-31,42.7,35.5,28.4,40.9,22.9,17.5,94,61,41,30.13,29.58,8,4,14,0.00